• In Kazakhstan
  • List of Countries
  • For 7 days
  • Water Temperature
  • Weather Map
  • News
  • Weather Widgets
  • user-avatar
    Login

    Hourly Weather Serowe

    Today, 24 February, Monday

    Time Temperature Precipitation Wind Pressure Humidity
    00:00 +20°C° 0 mm 7 mps 667 mmHg 78%
    01:00 +18°C° 0 mm 7 mps 667 mmHg 78%
    02:00 +18°C° 0 mm 7 mps 667 mmHg 77%
    03:00 +17°C° 0 mm 7 mps 667 mmHg 77%
    04:00 +17°C° 0 mm 7 mps 667 mmHg 77%
    05:00 +17°C° 0 mm 7 mps 667 mmHg 77%
    06:00 +17°C° 0 mm 7 mps 668 mmHg 75%
    07:00 +17°C° 0 mm 7 mps 669 mmHg 74%
    08:00 +17°C° 0 mm 7 mps 669 mmHg 72%
    09:00 +18°C° 0 mm 7 mps 669 mmHg 69%
    10:00 +18°C° 0 mm 7 mps 669 mmHg 66%
    11:00 +20°C° 0 mm 7 mps 670 mmHg 62%
    12:00 +21°C° 0 mm 6 mps 669 mmHg 57%
    13:00 +23°C° 0 mm 6 mps 669 mmHg 53%
    14:00 +24°C° 0 mm 6 mps 669 mmHg 48%
    15:00 +25°C° 0 mm 5 mps 669 mmHg 50%
    16:00 +23°C° 0 mm 4 mps 669 mmHg 51%
    17:00 +24°C° 0 mm 3 mps 668 mmHg 52%
    18:00 +22°C° 0 mm 4 mps 668 mmHg 54%
    19:00 +22°C° 0 mm 4 mps 668 mmHg 55%
    20:00 +21°C° 0 mm 5 mps 669 mmHg 57%
    21:00 +20°C° 0 mm 4 mps 668 mmHg 60%
    22:00 +19°C° 0 mm 4 mps 668 mmHg 63%
    23:00 +19°C° 0 mm 4 mps 668 mmHg 66%

    Tomorrow, 25 February, Tuesday

    Time Temperature Precipitation Wind Pressure Humidity
    00:00 +18°C° 0 mm 4 mps 668 mmHg 70%
    01:00 +18°C° 0 mm 3 mps 668 mmHg 74%
    02:00 +17°C° 0 mm 3 mps 668 mmHg 77%
    03:00 +17°C° 0 mm 4 mps 667 mmHg 79%
    04:00 +16°C° 0 mm 5 mps 667 mmHg 80%
    05:00 +16°C° 0 mm 5 mps 667 mmHg 81%
    06:00 +16°C° 0 mm 6 mps 668 mmHg 78%
    07:00 +17°C° 0 mm 6 mps 668 mmHg 75%
    08:00 +17°C° 0 mm 6 mps 669 mmHg 73%
    09:00 +20°C° 0 mm 6 mps 669 mmHg 65%
    10:00 +22°C° 0 mm 6 mps 669 mmHg 56%
    11:00 +24°C° 0 mm 6 mps 669 mmHg 48%
    12:00 +26°C° 0 mm 6 mps 669 mmHg 42%
    13:00 +28°C° 0 mm 6 mps 668 mmHg 35%
    14:00 +29°C° 0 mm 6 mps 668 mmHg 29%
    15:00 +29°C° 0 mm 5 mps 668 mmHg 28%
    16:00 +29°C° 0 mm 5 mps 667 mmHg 26%
    17:00 +29°C° 0 mm 5 mps 667 mmHg 25%
    18:00 +27°C° 0 mm 4 mps 667 mmHg 30%
    19:00 +25°C° 0 mm 4 mps 667 mmHg 35%
    20:00 +22°C° 0 mm 3 mps 667 mmHg 40%
    21:00 +21°C° 0 mm 3 mps 667 mmHg 44%
    22:00 +20°C° 0 mm 3 mps 667 mmHg 47%
    23:00 +19°C° 0 mm 2 mps 667 mmHg 50%

    Day after tomorrow, 26 February, Wednesday

    Time Temperature Precipitation Wind Pressure Humidity
    00:00 +18°C° 0 mm 2 mps 666 mmHg 53%
    01:00 +18°C° 0 mm 2 mps 666 mmHg 55%
    02:00 +18°C° 0 mm 2 mps 666 mmHg 57%
    03:00 +17°C° 0 mm 2 mps 666 mmHg 60%
    04:00 +17°C° 0 mm 2 mps 665 mmHg 62%
    05:00 +16°C° 0 mm 2 mps 665 mmHg 65%
    06:00 +17°C° 0 mm 3 mps 666 mmHg 62%
    07:00 +18°C° 0 mm 3 mps 667 mmHg 59%
    08:00 +19°C° 0 mm 4 mps 667 mmHg 56%
    09:00 +22°C° 0 mm 4 mps 668 mmHg 49%
    10:00 +25°C° 0 mm 4 mps 668 mmHg 42%
    11:00 +28°C° 0 mm 4 mps 669 mmHg 35%
    12:00 +29°C° 0 mm 4 mps 668 mmHg 31%
    13:00 +32°C° 0 mm 4 mps 668 mmHg 28%
    14:00 +33°C° 0 mm 4 mps 667 mmHg 24%
    15:00 +33°C° 0 mm 4 mps 667 mmHg 23%
    16:00 +33°C° 0 mm 4 mps 666 mmHg 22%
    17:00 +33°C° 0 mm 4 mps 666 mmHg 21%
    18:00 +30°C° 0 mm 4 mps 665 mmHg 26%
    19:00 +27°C° 0 mm 3 mps 665 mmHg 30%
    20:00 +25°C° 0 mm 3 mps 665 mmHg 34%
    21:00 +24°C° 0 mm 3 mps 665 mmHg 36%
    22:00 +23°C° 0 mm 2 mps 665 mmHg 39%
    23:00 +21°C° 0 mm 2 mps 665 mmHg 41%

    27 February, Thursday

    Time Temperature Precipitation Wind Pressure Humidity
    00:00 +21°C° 0 mm 2 mps 665 mmHg 43%
    01:00 +20°C° 0 mm 2 mps 665 mmHg 45%
    02:00 +20°C° 0 mm 2 mps 665 mmHg 47%
    03:00 +19°C° 0 mm 2 mps 665 mmHg 49%
    04:00 +19°C° 0 mm 2 mps 665 mmHg 52%
    05:00 +18°C° 0 mm 2 mps 665 mmHg 54%
    06:00 +20°C° 0 mm 2 mps 665 mmHg 49%
    07:00 +23°C° 0 mm 2 mps 666 mmHg 44%
    08:00 +24°C° 0 mm 2 mps 667 mmHg 39%
    09:00 +27°C° 0 mm 2 mps 667 mmHg 33%
    10:00 +29°C° 0 mm 3 mps 667 mmHg 26%
    11:00 +33°C° 0 mm 3 mps 668 mmHg 19%
    12:00 +34°C° 0 mm 3 mps 667 mmHg 17%
    13:00 +36°C° 0 mm 2 mps 667 mmHg 15%
    14:00 +37°C° 0 mm 2 mps 667 mmHg 13%
    15:00 +37°C° 0 mm 2 mps 666 mmHg 13%
    16:00 +36°C° 0 mm 1 mps 666 mmHg 13%
    17:00 +35°C° 0 mm 1 mps 665 mmHg 13%
    18:00 +33°C° 0 mm 1 mps 665 mmHg 17%
    19:00 +30°C° 0 mm 1 mps 665 mmHg 21%
    20:00 +27°C° 0 mm 1 mps 664 mmHg 25%
    21:00 +26°C° 0 mm 2 mps 664 mmHg 27%
    22:00 +26°C° 0 mm 2 mps 665 mmHg 30%
    23:00 +25°C° 0 mm 2 mps 665 mmHg 32%

    28 February, Friday

    Time Temperature Precipitation Wind Pressure Humidity
    00:00 +24°C° 0 mm 2 mps 665 mmHg 32%
    01:00 +24°C° 0 mm 2 mps 664 mmHg 32%
    02:00 +24°C° 0 mm 2 mps 664 mmHg 31%
    03:00 +23°C° 0 mm 2 mps 664 mmHg 34%
    04:00 +21°C° 0 mm 2 mps 664 mmHg 37%
    05:00 +21°C° 0 mm 2 mps 665 mmHg 39%
    06:00 +23°C° 0 mm 2 mps 665 mmHg 38%
    07:00 +24°C° 0 mm 2 mps 666 mmHg 37%
    08:00 +26°C° 0 mm 2 mps 667 mmHg 36%
    09:00 +28°C° 0 mm 3 mps 667 mmHg 32%
    10:00 +32°C° 0 mm 4 mps 668 mmHg 28%
    11:00 +34°C° 0 mm 4 mps 668 mmHg 23%
    12:00 +35°C° 0 mm 4 mps 668 mmHg 22%
    13:00 +36°C° 0 mm 4 mps 667 mmHg 21%
    14:00 +37°C° 0 mm 4 mps 667 mmHg 20%
    15:00 +37°C° 0 mm 5 mps 666 mmHg 19%
    16:00 +36°C° 0 mm 5 mps 666 mmHg 19%
    17:00 +36°C° 0 mm 5 mps 665 mmHg 18%
    18:00 +34°C° 0 mm 5 mps 666 mmHg 23%
    19:00 +32°C° 0 mm 5 mps 666 mmHg 27%
    20:00 +29°C° 0 mm 5 mps 666 mmHg 32%
    21:00 +28°C° 0 mm 6 mps 666 mmHg 38%
    22:00 +27°C° 0 mm 7 mps 667 mmHg 45%
    23:00 +26°C° 0 mm 7 mps 667 mmHg 51%

    29 February, Saturday

    Time Temperature Precipitation Wind Pressure Humidity
    00:00 +24°C° 0 mm 8 mps 667 mmHg 57%
    01:00 +23°C° 0 mm 8 mps 667 mmHg 64%
    02:00 +22°C° 0 mm 8 mps 667 mmHg 70%
    03:00 +22°C° 0 mm 8 mps 667 mmHg 72%
    04:00 +21°C° 0 mm 9 mps 667 mmHg 75%
    05:00 +19°C° 0 mm 9 mps 668 mmHg 77%
    06:00 +19°C° 0 mm 9 mps 668 mmHg 75%
    07:00 +19°C° 0 mm 9 mps 669 mmHg 73%
    08:00 +18°C° 0 mm 8 mps 669 mmHg 71%
    09:00 +21°C° 0 mm 8 mps 670 mmHg 64%
    10:00 +22°C° 0 mm 8 mps 670 mmHg 57%
    11:00 +24°C° 0 mm 8 mps 671 mmHg 51%
    12:00 +26°C° 0 mm 8 mps 670 mmHg 48%
    13:00 +27°C° 0 mm 8 mps 670 mmHg 45%
    14:00 +28°C° 0 mm 8 mps 669 mmHg 42%
    15:00 +27°C° 0 mm 8 mps 669 mmHg 43%
    16:00 +27°C° 0 mm 8 mps 668 mmHg 44%
    17:00 +26°C° 0 mm 8 mps 668 mmHg 45%
    18:00 +23°C° 0 mm 7 mps 668 mmHg 50%
    19:00 +22°C° 0 mm 7 mps 668 mmHg 56%
    20:00 +20°C° 0 mm 6 mps 669 mmHg 62%
    21:00 +19°C° 0 mm 6 mps 669 mmHg 66%
    22:00 +17°C° 0 mm 6 mps 669 mmHg 69%
    23:00 +16°C° 0 mm 6 mps 669 mmHg 73%
    Show more